FENGYUN 1C DEB, 38801

Orbit data source: Space-Track

FENGYUN 1C DEB, 38801 is space debris in SSO originally from a launch on Mon, 10 May 1999 UTC launched from the Taiyaun Space Center, China (TSC). Fengyun 1C debris stems from the Chinese weather satellite Fengyun-1C, which was intentionally destroyed by a Chinese anti-satellite missile in 2007. This event dramatically increased the amount of space debris, with thousands of trackable fragments posing hazards to satellites and human spaceflight. The Fengyun 1C debris cloud has become a focal point in discussions about space sustainability and the need for international regulations to prevent the creation of new debris.

Loading next visibility...
Identifier
38801, 1999-025EUR
Orbit
SSO
Country
Flag of CNCN / PRC
Related business
Manufacturer
Unknown
Mission
Spacecraft
Bus & Motor
Unknown
Mass
Unknown
Launch date (UTC)
1999-05-10 (27 years ago)
Launch vehicle
Unknown
Launch site
Taiyaun Space Center, China (TSC)
Object type
Payload
Rocket body
Debris
Shape & HBR
Unknown shape, 0.1 m
Radar Cross Section
Small (<0.1 m²)

Expand to show TLE details & history
Last TLE update: 5 days ago

TLE from 5 days ago
0 FENGYUN 1C DEB
1 38801U 99025EUR 26066.40393816  .00003651  00000-0  83362-3 0  9999
2 38801  98.3608 118.3108 0346532 102.8707 325.6511 14.25341338655661
Epoch: 2026-03-07T09:41Z
TLE epoch observation values (Epoch: 2026-03-07T09:41:40.257Z)
Latitude
64.94593°
Longitude
149.54618°
Altitude
615.772 km
Speed
7.663 km/s
True Right ascension
06h 40m 21s
True Declination
64° 48' 40"
Sunlit
Object was in daylight at epoch
Visualization orbit readout
Latitude
Unknown
Longitude
Unknown
Altitude
Unknown
Speed
Unknown
Apparent Right ascension
Unknown
Apparent Declination
Unknown
Sunlit
N/A
Visualization observer readout
Local Sidereal Time
00:17:30
Azimuth
Unknown
Elevation
Unknown
Doppler factor
Unknown
Orbital elements
Apogee altitude
1,053.376 km
Perigee altitude
555.575 km
Semi-major axis
7,182.612 km
Eccentricity
0.03465
Inclination
98.3608°
RAAN
118.3108°
Arg. of periapsis
102.8707°
True anomaly
323.32823°
Mean anomaly
325.6511°
Eccentric anomaly
324.49807°
Mean motion
3.56549 °/min
Orbital period
100.97 mins
BSTAR
0.00083362
Loading maneuver chart data...
Computing Atmospheric mass density...
Loading historical data...
Loading historical data...
Loading historical data...
Loading historical data...
Loading historical data...
Loading historical data...
Loading historical data...

Documentation

Showing up to 5 results
|